Location: *
(50.3440°N, 18.6237°E)
Time: 18:30:45
(UTC+00:00)

Cosmos 2322 Rocket - Pass Details

Date: 30 November 2020
Orbit: 834 x 849 km, 71.0° (Epoch: 23 January)

Event Time Altitude Azimuth Distance (km) Brightness Sun altitude
Rises 15:17:39 0° 269° (W) 3,408 6.6 -5.2°
Reaches altitude 10° 15:21:05 10° 290° (WNW) 2,473 5.3 -5.7°
Maximum altitude 15:24:37 17° 329° (NNW) 2,048 4.3 -6.2°
Drops below altitude 10° 15:28:08 10° 7° (N) 2,472 4.3 -6.7°
Enters shadow 15:31:09 - 27° (NNE) 3,276 4.8 -7.1°
